Location: Bretagne
(43.8868°N, 0.1394°E)
Time: 12:48:15
(UTC+00:00)

Daily predictions for brighter satellites

Satellite Brightness Start Highest point End
(mag) Time Altitude Azimuth Time Altitude Azimuth Time Altitude Azimuth
Cosmos 962 Rocket 4.5 16:48:17 10° N 16:54:33 70° E 17:00:42 10° SSE
Cosmos 2297 3.7 16:48:52 10° NNW 16:54:34 70° ENE 17:00:15 10° SSE
SL-16 R/B 2.2 16:51:33 10° SSW 16:57:11 77° ESE 17:02:52 10° NNE
CZ-4B R/B 3.0 16:57:17 10° NE 16:59:16 16° E 17:01:15 10° SE
Landsat 5 3.6 16:56:04 10° NNE 17:00:34 76° ESE 17:05:05 10° S
BREEZE-M DEB (TANK) 1.7 16:58:22 10° WSW 17:01:32 82° SSE 17:03:26 11° ENE
SMAP 3.2 17:00:34 10° SSE 17:05:05 55° ENE 17:09:39 10° N
Sich 1 3.3 17:04:16 10° NNW 17:08:38 74° W 17:12:56 10° S
YAOGAN 1 4.5 17:09:19 10° ENE 17:09:19 10° ENE 17:09:56 10° NE
Cosmos 1151 Rocket 3.1 17:07:18 10° S 17:11:27 54° E 17:15:38 10° NNE
CZ-4C R/B 3.4 17:07:56 10° N 17:11:34 71° WNW 17:15:08 10° SSW
Cosmos 1470 Rocket 4.1 17:09:30 10° N 17:13:30 35° ENE 17:17:29 10° SE
Cosmos 1515 Rocket 4.2 17:15:36 10° SSE 17:19:32 34° E 17:23:31 10° NNE
CZ-2C R/B 4.2 17:17:48 10° ESE 17:21:08 19° ENE 17:24:25 10° NNE
Cosmos 482 Debris 2.3 17:20:41 10° NW 17:22:27 62° NNE 17:23:46 17° ESE
SL-8 Rocket 4.0 17:16:27 10° N 17:22:43 78° E 17:29:00 10° SSE
Cosmos 2341 Rocket 4.2 17:17:58 10° N 17:24:17 79° W 17:30:37 10° S
Cosmos 1238 Rocket 4.5 17:22:52 10° NNE 17:25:39 17° ENE 17:28:46 10° ESE
Radarsat Rocket 4.4 17:20:50 10° S 17:26:56 75° WSW 17:33:49 10° NNW
COSMO-SKYMED 1 3.5 17:23:16 10° NE 17:27:00 27° E 17:30:41 10° SSE
X-37B 0.7 17:24:14 10° WSW 17:27:24 71° SSE 17:29:28 20° E
Cosmos 1689 Rocket 4.4 17:29:01 11° ESE 17:29:01 11° ESE 17:29:16 10° ESE
Cosmos 1959 Rocket 4.5 17:21:56 10° N 17:28:19 71° E 17:34:38 10° SSE
USA 281 4.0 17:23:11 10° ESE 17:28:32 27° NE 17:33:53 10° N
Cosmos 2228 Rocket 4.2 17:28:37 10° SE 17:32:13 23° E 17:34:29 16° NE
USA 81 4.0 17:27:00 10° N 17:32:19 80° E 17:37:37 10° S
CORIOLIS 4.1 17:27:01 10° SSE 17:32:25 85° ENE 17:37:54 10° NNW
Helios 1A Rocket 4.4 17:33:25 17° NE 17:33:25 17° NE 17:35:18 10° NNE
Meteor 1-4 Rocket 2.4 17:29:50 10° S 17:33:24 65° E 17:36:55 10° NNE
Cosmos 2285 Rocket 4.2 17:28:23 10° NNW 17:34:47 80° WSW 17:41:06 10° SSE
Cosmos 1812 3.9 17:33:04 10° SE 17:36:02 22° E 17:36:36 21° ENE
H-2A R/B 3.3 17:35:18 18° ENE 17:36:03 18° ENE 17:39:28 10° NNE
Cosmos 1821 Rocket 4.5 17:32:33 10° N 17:38:18 37° ENE 17:44:06 10° SE
Cosmos 1939 Rocket 3.2 17:34:42 10° SE 17:38:19 39° ENE 17:42:01 10° N
USA 267 4.1 17:34:11 16° ENE 17:38:31 33° NNE 17:44:14 10° NW
Cosmos 1328 Rocket 3.6 17:35:04 10° S 17:39:22 84° W 17:43:45 10° N
CZ-4 R/B 2.7 17:41:26 21° NE 17:41:26 21° NE 17:43:50 10° NNE
BREEZE-M DEB (TANK) 3.7 17:38:12 10° SSW 17:41:36 22° SSE 17:42:52 17° ESE
Cosmos 44 Rocket 4.2 17:38:05 10° NNW 17:42:39 31° NE 17:45:09 21° E
Cosmos 1933 Rocket 3.7 17:39:16 10° N 17:43:38 51° ENE 17:47:58 10° SSE
IRS-1C Rocket 4.3 17:39:43 10° SE 17:44:43 45° ENE 17:49:44 10° N
Cosmos 1602 3.6 17:42:17 10° N 17:46:12 86° E 17:50:04 10° S
Cosmos 2181 Rocket 4.3 17:40:54 10° SSW 17:47:17 72° W 17:53:39 10° N
H-2A R/B 4.4 17:43:42 10° SSW 17:47:31 33° W 17:51:15 10° NNW
Lacrosse 4 Rocket 3.4 17:46:11 10° SE 17:46:59 12° SE 17:46:59 12° SE
NOAA 11 4.1 17:43:00 10° SSE 17:48:26 88° ENE 17:53:55 10° NNW
Cosmos 1680 Rocket 4.4 17:44:24 10° SSE 17:48:48 27° E 17:50:18 24° ENE
Cosmos 2237 Rocket 4.4 17:44:51 10° W 17:48:48 19° NW 17:52:47 10° N
CZ-4B R/B 3.8 17:44:31 10° S 17:49:45 58° WSW 17:54:58 10° NNW
SL-24 R/B 4.1 17:49:33 25° NE 17:51:08 38° E 17:54:34 10° SSE
Cosmos 1603 3.7 17:47:18 10° S 17:52:47 58° ESE 17:56:56 18° NE
CZ-2D R/B 3.5 17:51:33 10° SE 17:55:10 42° ENE 17:58:50 10° N
Cosmos 1943 3.3 17:50:41 10° S 17:56:10 55° ESE 17:59:58 20° NE
Cosmos 1538 Rocket 4.1 17:52:56 10° SSW 17:58:18 83° WNW 18:03:43 10° NNE
H-2A R/B 3.6 17:54:57 10° N 17:58:46 34° WNW 18:02:40 10° SW
Cosmos 2369 Rocket 2.1 17:53:36 10° NNW 17:59:19 82° ENE 18:04:58 10° SSE
Cosmos 1943 Rocket 2.7 17:55:03 10° NNW 18:00:32 61° WSW 18:06:01 10° S
Meteor 1-14 Rocket 4.3 17:55:45 10° N 18:01:46 88° E 18:07:45 10° S
Cosmos 1782 3.2 17:57:52 10° SSW 18:01:48 63° W 18:05:46 10° N
Meteor 1-5 Rocket 4.3 17:56:03 10° N 18:01:51 54° ENE 18:07:27 10° SSE
Okean O Rocket 2.9 17:57:48 10° S 18:01:57 43° W 18:06:09 10° NNW
Cosmos 1461 4.3 17:59:14 10° SSE 18:02:44 25° ESE 18:02:44 25° ESE
Okean-O 3.0 17:59:26 10° SE 18:03:33 40° ENE 18:07:42 10° N
ISS -2.2 18:03:18 10° NW 18:05:55 24° N 18:05:55 24° N
CENTAUR R/B 3.1 18:01:11 10° S 18:06:15 33° ESE 18:07:44 29° E
SL-08 R/B 4.4 18:06:40 10° N 18:12:49 87° W 18:18:56 10° S
ERS-2 2.5 18:10:45 16° N 18:13:32 63° WNW 18:17:08 10° SSW
NOSS 3-2 (C) 3.9 18:09:19 10° S 18:14:18 35° ESE 18:15:10 34° E
SKYMED 2 3.5 18:11:44 16° NNE 18:15:13 89° E 18:19:34 10° SSW
Cosmos 1869 Rocket 3.8 18:14:01 10° N 18:22:43 10° SSE 18:17:48 46° NE
BREEZE-M DEB (TANK) 3.3 18:09:41 10° SW 18:19:02 68° SSE 18:19:59 49° E
Meteor 1-27 Rocket 4.1 18:15:32 10° SSE 18:20:11 38° ESE 18:20:11 38° ESE
Meteor 1-10 Rocket 4.1 18:19:21 10° S 18:24:57 70° E 18:28:49 20° NNE
Lacrosse 5 rocket 3.2 18:23:09 10° WNW 18:25:25 16° NNW 18:25:53 15° N
BREEZE-M DEB (TANK) 4.2 18:25:51 10° NW 18:26:37 18° NW 18:26:37 18° NW
FALCON 9 R/B 3.2 18:27:50 10° SSW 18:28:29 13° SSW 18:28:29 13° SSW
Cosmos 371 Rocket 4.4 18:25:15 10° N 18:28:01 29° NNE 18:28:01 29° NNE
CZ-4B R/B 3.4 18:29:34 14° NNW 18:31:30 25° WNW 18:34:09 10° SW
NOSS 3-2 (A) 3.2 18:33:49 10° SW 18:39:25 88° SE 18:41:27 45° NE
SL-16 R/B 4.4 18:37:53 10° W 18:41:57 20° NW 18:46:02 10° N
Cosmos 1500 4.2 18:38:29 10° NNW 18:42:09 46° W 18:45:50 10° SSW
YAOGAN 1 3.6 18:46:29 35° NNW 18:46:29 35° NNW 18:49:03 10° NNW
Cosmos 2239 Rocket 4.4 18:38:50 10° N 18:45:01 85° W 18:51:14 10° S
Cosmos 1535 Rocket 4.3 18:39:50 10° N 18:45:55 64° E 18:51:58 10° SSE
USA 215 3.1 18:46:42 49° ENE 18:48:41 84° SE 18:55:14 10° SW
Cosmos 1656 Rocket 4.0 18:48:45 10° NNW 18:54:20 66° WSW 18:58:59 15° S
MOS 1 Rocket 3.6 18:52:44 37° N 18:54:57 80° WNW 19:00:17 10° SSW
USA 238 DEB 3.6 18:52:11 10° SW 18:58:45 82° NW 19:00:34 52° NNE
USA 238 3.6 18:52:15 10° SW 18:58:51 82° NW 19:00:38 53° NNE
Cosmos 158 Rocket 4.4 18:54:58 10° SW 18:59:49 54° WNW 19:00:45 47° NNW
CZ-2C R/B 3.5 18:55:44 10° S 19:00:39 56° W 19:05:24 10° NNW
COSMO-SKYMED 1 4.4 19:00:19 15° NNW 19:03:07 29° WNW 19:06:50 10° SW
X-37B 3.6 19:00:54 10° W 19:01:44 17° W 19:01:44 17° W
Cosmos 1238 Rocket 4.1 19:01:17 10° NNW 19:05:13 45° W 19:09:57 10° SSW
Cosmos 1934 Rocket 4.0 19:01:30 10° N 19:07:54 82° W 19:14:10 10° S
CSL-04 Debris 4.3 19:09:14 71° NW 19:09:14 71° NW 19:14:10 10° NNW
USA 281 3.4 19:05:59 10° SSE 19:12:30 69° WSW 19:19:05 10° NNW
H-2A R/B 2.6 19:15:55 54° NW 19:15:55 54° NW 19:20:07 10° NNW
CZ-4 R/B 3.6 19:17:28 21° NW 19:17:28 21° NW 19:19:12 10° NNW
USA 267 3.3 19:21:32 65° N 19:21:32 65° N 19:27:24 10° NW
Cosmos 44 Rocket 4.3 19:19:24 10° NW 19:23:56 46° W 19:23:56 46° W
Meteor 1-11 Rocket 4.5 19:19:15 10° NNW 19:24:52 52° W 19:30:34 10° SSW
Lacrosse 4 Rocket 3.9 19:22:26 10° SW 19:23:20 16° SW 19:23:20 16° SW
CENTAUR R/B 3.5 19:50:43 10° WSW 19:54:58 42° W 19:54:58 42° W
